Terug naar catalogus

STARLINK-33931

ActiefCommunicatieVLEO
NORAD 64006·PAYLOAD·🇺🇸 United States

Gelanceerd May 14, 2025 vanaf Cape Canaveral Space Force Station

Loading…

Volgende Passages (komende 24 uur)

TLE

VersSource: CelesTrak SupGP

Epoch: Sep 15, 2026, 02:20 UTC

1 64006C 25101N   26258.09770833  .00011197  00000+0  40544-3 0  2581
2 64006  43.0033   7.9273 0001470 266.1890 210.0691 15.27581696    13

Volg STARLINK-33931 in realtime met AllMySat

Download on the App Store